RUK2HK EGPF-EGSS

Flight info

Callsign RUK2HK
Flight time 1h 4m
Altitude 31000
Route NORBO T256 RIPNO DCT AKOMU DCT VAMEB UL612 LISTO
Aircraft B738/M-SDE3FGILRWY/SB1

Departure

Time 2026-04-30 18:10
Airport Glasgow Airport (EGPF)

Arrival

Time 2026-04-30 19:14
Airport London Stansted Airport (EGSS)
Time Latitude Longitude Altitude Speed Heading
2026-04-30 17:39 55.86700 -4.43161 28 ft 0 kts 74°
2026-04-30 18:02 55.86688 -4.43211 28 ft 3 kts 47°
2026-04-30 18:03 55.86658 -4.43231 28 ft 0 kts 343°
2026-04-30 18:05 55.86659 -4.43231 28 ft 1 kts 343°
2026-04-30 18:06 55.86764 -4.43546 28 ft 12 kts 253°
2026-04-30 18:07 55.86506 -4.44181 28 ft 23 kts 226°
2026-04-30 18:08 55.86277 -4.44754 28 ft 14 kts 314°
2026-04-30 18:09 55.86548 -4.44537 28 ft 66 kts 46°
2026-04-30 18:10 55.89125 -4.39742 1385 ft 159 kts 50°
2026-04-30 18:11 55.91998 -4.31964 2906 ft 204 kts 104°
2026-04-30 18:11 55.88664 -4.27751 4232 ft 225 kts 160°
2026-04-30 18:12 55.83861 -4.24934 5775 ft 254 kts 162°
2026-04-30 18:13 55.80479 -4.22965 7299 ft 257 kts 163°
2026-04-30 18:13 55.75936 -4.20321 9410 ft 261 kts 163°
2026-04-30 18:14 55.72424 -4.18280 10660 ft 279 kts 163°
2026-04-30 18:15 55.66318 -4.14736 11840 ft 322 kts 162°
2026-04-30 18:15 55.59158 -4.10588 14403 ft 331 kts 163°
2026-04-30 18:16 55.55491 -4.08472 15626 ft 336 kts 163°
2026-04-30 18:16 55.50968 -4.05868 17078 ft 343 kts 163°
2026-04-30 18:17 55.48693 -4.04561 17780 ft 346 kts 163°
2026-04-30 18:17 55.46392 -4.03240 18476 ft 350 kts 163°
2026-04-30 18:17 55.41711 -4.00559 19666 ft 357 kts 162°
2026-04-30 18:18 55.39338 -3.99202 20320 ft 359 kts 162°
2026-04-30 18:18 55.36956 -3.97842 20965 ft 361 kts 162°
2026-04-30 18:18 55.34553 -3.96472 21566 ft 364 kts 163°
2026-04-30 18:18 55.32133 -3.95093 22133 ft 367 kts 163°
2026-04-30 18:19 55.29696 -3.93707 22724 ft 370 kts 163°
2026-04-30 18:19 55.27241 -3.92313 23317 ft 372 kts 163°
2026-04-30 18:19 55.24767 -3.90910 23873 ft 375 kts 163°
2026-04-30 18:19 55.22274 -3.89498 24352 ft 378 kts 163°
2026-04-30 18:20 55.19796 -3.88096 24828 ft 380 kts 163°
2026-04-30 18:20 55.17240 -3.86653 25290 ft 382 kts 163°
2026-04-30 18:20 55.14748 -3.85247 25871 ft 381 kts 163°
2026-04-30 18:20 55.12235 -3.83831 26492 ft 378 kts 163°
2026-04-30 18:21 55.09744 -3.82430 27149 ft 374 kts 163°
2026-04-30 18:21 55.07274 -3.81042 27780 ft 373 kts 163°
2026-04-30 18:21 55.04805 -3.79659 28337 ft 372 kts 163°
2026-04-30 18:21 55.02338 -3.78278 28902 ft 372 kts 163°
2026-04-30 18:22 54.99883 -3.76904 29506 ft 370 kts 163°
2026-04-30 18:22 54.95007 -3.74131 30571 ft 368 kts 160°
2026-04-30 18:22 54.92690 -3.72224 30988 ft 371 kts 151°
2026-04-30 18:23 54.90477 -3.69864 31158 ft 374 kts 150°
2026-04-30 18:23 54.88270 -3.67478 31161 ft 372 kts 150°
2026-04-30 18:23 54.83886 -3.62752 31166 ft 371 kts 150°
2026-04-30 18:24 54.77270 -3.55703 31177 ft 372 kts 151°
2026-04-30 18:25 54.72847 -3.51025 31174 ft 373 kts 151°
2026-04-30 18:25 54.66195 -3.44016 31177 ft 373 kts 151°
2026-04-30 18:26 54.59549 -3.37040 31165 ft 372 kts 151°
2026-04-30 18:27 54.52921 -3.30111 31160 ft 371 kts 151°
2026-04-30 18:28 54.46321 -3.23237 31170 ft 370 kts 151°
2026-04-30 18:28 54.39724 -3.16395 31169 ft 371 kts 151°
2026-04-30 18:29 54.30868 -3.07249 31165 ft 372 kts 151°
2026-04-30 18:30 54.22011 -2.98150 31171 ft 370 kts 151°
2026-04-30 18:31 54.15301 -2.91672 31178 ft 368 kts 158°
2026-04-30 18:32 54.08232 -2.86635 31171 ft 367 kts 158°
2026-04-30 18:33 54.01189 -2.81543 31165 ft 367 kts 158°
2026-04-30 18:33 53.94136 -2.76430 31168 ft 368 kts 158°
2026-04-30 18:34 53.87068 -2.71325 31178 ft 369 kts 158°
2026-04-30 18:35 53.82343 -2.67927 31173 ft 369 kts 158°
2026-04-30 18:35 53.77622 -2.64538 31174 ft 369 kts 158°
2026-04-30 18:36 53.70536 -2.59468 31154 ft 368 kts 158°
2026-04-30 18:37 53.63501 -2.54452 31176 ft 367 kts 158°
2026-04-30 18:37 53.58795 -2.51106 31176 ft 367 kts 158°
2026-04-30 18:38 53.54092 -2.47772 31170 ft 367 kts 158°
2026-04-30 18:38 53.49388 -2.44444 31177 ft 367 kts 158°
2026-04-30 18:39 53.44687 -2.41125 31178 ft 366 kts 158°
2026-04-30 18:39 53.39994 -2.37819 31184 ft 366 kts 158°
2026-04-30 18:40 53.35293 -2.34518 31185 ft 366 kts 158°
2026-04-30 18:40 53.30588 -2.31225 31185 ft 366 kts 158°
2026-04-30 18:41 53.25890 -2.27940 31187 ft 366 kts 158°
2026-04-30 18:41 53.21185 -2.24660 31186 ft 366 kts 158°
2026-04-30 18:42 53.16480 -2.21387 31185 ft 367 kts 158°
2026-04-30 18:42 53.12006 -2.17346 31192 ft 368 kts 145°
2026-04-30 18:42 53.09951 -2.14799 31177 ft 368 kts 144°
2026-04-30 18:45 52.89756 -1.90052 29847 ft 345 kts 145°
2026-04-30 18:45 52.87821 -1.87722 29569 ft 343 kts 146°
2026-04-30 18:45 52.85894 -1.85405 29291 ft 341 kts 146°
2026-04-30 18:46 52.83977 -1.83102 29020 ft 340 kts 146°
2026-04-30 18:46 52.82061 -1.80803 28751 ft 339 kts 146°
2026-04-30 18:46 52.80153 -1.78516 28489 ft 339 kts 146°
2026-04-30 18:46 52.78248 -1.76233 28218 ft 338 kts 146°
2026-04-30 18:47 52.76350 -1.73962 27953 ft 337 kts 146°
2026-04-30 18:47 52.74448 -1.71711 27696 ft 336 kts 148°
2026-04-30 18:47 52.72438 -1.69754 27360 ft 334 kts 152°
2026-04-30 18:47 52.70379 -1.67995 27097 ft 333 kts 154°
2026-04-30 18:48 52.68314 -1.66285 26822 ft 330 kts 154°
2026-04-30 18:48 52.66279 -1.64598 26497 ft 326 kts 154°
2026-04-30 18:48 52.64262 -1.62911 26149 ft 324 kts 153°
2026-04-30 18:48 52.62267 -1.61227 25807 ft 321 kts 153°
2026-04-30 18:49 52.60288 -1.59547 25469 ft 319 kts 153°
2026-04-30 18:49 52.58326 -1.57877 25135 ft 317 kts 153°
2026-04-30 18:49 52.56375 -1.56212 24803 ft 315 kts 153°
2026-04-30 18:49 52.54438 -1.54560 24477 ft 313 kts 153°
2026-04-30 18:50 52.52509 -1.52914 24152 ft 311 kts 153°
2026-04-30 18:50 52.50593 -1.51280 23840 ft 310 kts 153°
2026-04-30 18:50 52.48682 -1.49652 23565 ft 309 kts 153°
2026-04-30 18:50 52.46776 -1.48029 23159 ft 307 kts 153°
2026-04-30 18:51 52.44885 -1.46421 22824 ft 305 kts 153°
2026-04-30 18:51 52.43010 -1.44828 22495 ft 303 kts 153°
2026-04-30 18:51 52.41147 -1.43247 22158 ft 301 kts 153°
2026-04-30 18:51 52.39297 -1.41678 21885 ft 298 kts 153°
2026-04-30 18:52 52.37461 -1.40124 21569 ft 297 kts 153°
2026-04-30 18:52 52.35634 -1.38578 21252 ft 295 kts 153°
2026-04-30 18:52 52.33837 -1.37058 20946 ft 293 kts 153°
2026-04-30 18:52 52.32006 -1.35510 20630 ft 292 kts 153°
2026-04-30 18:53 52.30204 -1.33988 20320 ft 291 kts 153°
2026-04-30 18:53 52.28418 -1.32431 20035 ft 291 kts 150°
2026-04-30 18:53 52.26663 -1.30780 19746 ft 293 kts 149°
2026-04-30 18:53 52.24888 -1.29082 19464 ft 298 kts 149°
2026-04-30 18:54 52.23082 -1.27355 19167 ft 302 kts 149°
2026-04-30 18:54 52.21261 -1.25623 18858 ft 304 kts 150°
2026-04-30 18:54 52.19459 -1.23917 18566 ft 304 kts 150°
2026-04-30 18:54 52.17619 -1.22180 18209 ft 306 kts 150°
2026-04-30 18:55 52.15787 -1.20456 17873 ft 303 kts 150°
2026-04-30 18:55 52.12172 -1.17064 17238 ft 297 kts 150°
2026-04-30 18:55 52.10389 -1.15394 16943 ft 294 kts 150°
2026-04-30 18:56 52.06887 -1.12119 16362 ft 288 kts 150°
2026-04-30 18:56 52.05159 -1.10504 16070 ft 285 kts 150°
2026-04-30 18:56 52.03442 -1.08902 15786 ft 283 kts 150°
2026-04-30 18:57 52.00452 -1.04955 15203 ft 282 kts 122°
2026-04-30 18:57 51.99732 -1.02006 15019 ft 283 kts 104°
2026-04-30 18:57 51.99588 -0.98803 14844 ft 286 kts 95°
2026-04-30 18:58 51.99609 -0.92266 14461 ft 293 kts 93°
2026-04-30 18:58 51.99629 -0.88943 14270 ft 294 kts 93°
2026-04-30 18:58 51.99644 -0.85629 14075 ft 294 kts 93°
2026-04-30 18:59 51.99657 -0.79020 13662 ft 292 kts 93°
2026-04-30 19:00 51.99653 -0.69190 13085 ft 289 kts 94°
2026-04-30 19:00 51.99648 -0.65943 12831 ft 287 kts 94°
2026-04-30 19:00 51.99694 -0.59406 12050 ft 291 kts 91°
2026-04-30 19:01 51.99932 -0.52875 11455 ft 288 kts 90°
2026-04-30 19:01 52.00051 -0.49633 11150 ft 288 kts 90°
2026-04-30 19:02 52.00236 -0.44266 10648 ft 286 kts 90°
2026-04-30 19:02 52.00443 -0.37839 10051 ft 284 kts 90°
2026-04-30 19:03 52.00639 -0.31471 9454 ft 281 kts 90°
2026-04-30 19:03 52.00828 -0.25158 8834 ft 279 kts 90°
2026-04-30 19:04 52.01011 -0.18915 8267 ft 275 kts 91°
2026-04-30 19:04 52.01190 -0.12727 7678 ft 273 kts 91°
2026-04-30 19:05 52.01364 -0.06628 7100 ft 267 kts 90°
2026-04-30 19:05 52.00558 -0.01034 6096 ft 256 kts 130°
2026-04-30 19:06 51.97876 0.02583 5257 ft 248 kts 145°
2026-04-30 19:06 51.96494 0.04087 5152 ft 232 kts 154°
2026-04-30 19:06 51.93436 0.04028 5021 ft 217 kts 191°
2026-04-30 19:07 51.90623 0.02832 4605 ft 205 kts 191°
2026-04-30 19:07 51.89249 0.02260 4279 ft 204 kts 191°
2026-04-30 19:08 51.86509 0.01140 3779 ft 203 kts 190°
2026-04-30 19:08 51.83788 0.00053 3413 ft 200 kts 189°
2026-04-30 19:08 51.82439 -0.00476 3245 ft 199 kts 188°
2026-04-30 19:09 51.79722 -0.01540 2942 ft 199 kts 187°
2026-04-30 19:09 51.78399 -0.01657 2763 ft 185 kts 161°
2026-04-30 19:09 51.77304 -0.00757 2616 ft 173 kts 138°
2026-04-30 19:10 51.76223 0.02551 2505 ft 172 kts 96°
2026-04-30 19:10 51.77004 0.06235 2476 ft 185 kts 52°
2026-04-30 19:11 51.77967 0.07551 2493 ft 176 kts 50°
2026-04-30 19:11 51.79697 0.10214 2480 ft 173 kts 51°
2026-04-30 19:11 51.80590 0.11568 2285 ft 176 kts 51°
2026-04-30 19:12 51.81483 0.12911 2038 ft 174 kts 52°
2026-04-30 19:12 51.82359 0.14231 1810 ft 170 kts 52°
2026-04-30 19:12 51.83214 0.15518 1577 ft 164 kts 52°
2026-04-30 19:13 51.84775 0.17870 1164 ft 144 kts 50°
2026-04-30 19:13 51.86236 0.20075 771 ft 141 kts 48°
2026-04-30 19:13 51.86952 0.21153 587 ft 141 kts 47°
2026-04-30 19:14 51.87684 0.22245 395 ft 144 kts 46°
2026-04-30 19:14 51.88354 0.23264 333 ft 131 kts 39°
2026-04-30 19:14 51.88934 0.24129 352 ft 97 kts 43°
2026-04-30 19:14 51.89290 0.24661 347 ft 46 kts 42°
2026-04-30 19:15 51.89477 0.24950 359 ft 10 kts 61°
2026-04-30 19:15 51.89493 0.25176 360 ft 12 kts 101°
2026-04-30 19:15 51.89436 0.25314 356 ft 17 kts 131°
2026-04-30 19:16 51.89456 0.25469 351 ft 16 kts 45°
2026-04-30 19:16 51.89538 0.25592 357 ft 16 kts 43°
2026-04-30 19:16 51.89587 0.25874 351 ft 14 kts 70°
2026-04-30 19:17 51.89607 0.26009 358 ft 13 kts 101°
2026-04-30 19:17 51.89600 0.26065 354 ft 0 kts 101°